Weather in Sergeyevka

Russia / Kursk Oblast     51°13′52″N   34°42′34″E
temp.,
°C
wind,
m/s
gust,
m/s
humid.,
%
clouds,
%
prec.,
mm/h
press.,
hPa
HPBL,
m
14 august, sun
sun1400:00+22ese5135186 0.0 1016411
03:00+19ene496650 0.1 1016185
06:00+19ene51271100 0.4 1016229
09:00+24e71260100 0.4 1015538
12:00+23e6136296 0.0 1016537
15:00+27e81049100 0.0 10151253
18:00+26ene71055100 0.0 1015776
21:00+23ene61462100 0.0 1014450
15 august, mon
mon1500:00+22ene6155888 0.0 1014421
03:00+20ene6155912 0.0 1013342
06:00+19ene51458100 0.0 1013291
09:00+22e51453100 0.0 1013457
12:00+29e7935100 0.0 1012988
15:00+31e8113382 0.0 10111458
18:00+30ene71438100 0.0 1010620
21:00+27ene41238100 0.0 1011372
16 august, tue
tue1600:00+27ene81834100 0.0 1010750
03:00+27ese81730100 0.0 1010843
06:00+26se71535100 0.1 1010694
09:00+24e4944100 0.1 1012258
12:00+24e81538100 0.0 1012597
15:00+23e71439100 0.0 1012635
18:00+26e8144199 0.0 1011711
21:00+24e7154543 0.0 1011439
17 august, wed
wed1700:00+21ene495080 0.0 1011151
03:00+19e5105814 0.1 1011207
06:00+17ese499099 2.0 1011158
09:00+23ese6106116 2.1 1010439
12:00+29se46356 0.1 10101249
15:00+31se35294 0.1 10092169
18:00+29sw344429 0.0 1009124
21:00+23n2261100 0.0 100912
18 august, thu
thu1800:00+21wsw3574100 0.2 1010116
03:00+19nnw338396 0.3 101054
06:00+19e2377100 0.0 101053
09:00+22e4658100 0.2 1010368
12:00+27e454688 0.5 1010884
15:00+30e35395 1.3 10101304
18:00+28ene710455 0.0 1010661
21:00+22ene412543 0.0 1010241